Miscellaneous Local Product
Issued by NWS Hastings, NE

Home | Current Version | Previous Version | Graphics & Text | Print | Product List | Glossary On
Versions: 1 2 3 4 5 6 7 8 9 10 11 12 13 14 15 16 17 18 19 20 21 22 23 24 25 26 27 28 29 30 31 32 33 34 35 36 37 38 39 40 41 42 43 44 45 46 47 48 49 50
062
AXUS43 KGID 260602
MISGRI

GID CWA HOURLY WEATHER ROUNDUP
NATIONAL WEATHER SERVICE HASTINGS NE
100 AM CDT MON SEP 26 2016

NOTE: "FAIR" INDICATES FEW OR NO CLOUDS BELOW 12,000 FEET WITH NO
SIGNIFICANT WEATHER AND/OR OBSTRUCTIONS TO VISIBILITY.

...SOUTH CENTRAL NEBRASKA...

CITY           SKY/WX    TMP DP  RH WIND       PRES   REMARKS
GRAND ISLAND   CLEAR     44  36  73 W8        30.30S
HASTINGS       CLEAR     45  36  70 NW6       30.31S
KEARNEY        CLEAR     46  28  49 NW7       30.31F
ORD            CLEAR     38  33  82 NW6       30.29F WCI  33
YORK           CLEAR     45  39  81 NW9       30.28S
AURORA         CLEAR     44  40  86 W6        30.29S
LEXINGTON      CLEAR     40  32  73 W7        30.33F
HOLDREGE       CLEAR     43  31  63 W5        30.32S
HEBRON         CLEAR     48  39  71 W5        30.29S

...NEBRASKA PANHANDLE...

CITY           SKY/WX    TMP DP  RH WIND       PRES   REMARKS
CHADRON        CLEAR     40  34  79 SW6       30.36S
ALLIANCE       CLEAR     33  31  92 W7        30.38R WCI  27
SCOTTSBLUFF    CLEAR     43  37  79 CALM      30.40S
SIDNEY         CLEAR     37  33  85 W7        30.42S WCI  32

...WESTERN AND NORTH CENTRAL NEBRASKA...

CITY           SKY/WX    TMP DP  RH WIND       PRES   REMARKS
VALENTINE      CLEAR     39  31  72 SW6       30.31F WCI  35
AINSWORTH      CLEAR     43  33  67 W7        30.31S
ONEILL         CLEAR     45  32  60 W6        30.28S
BROKEN BOW     CLEAR     34  31  88 CALM      30.32S
IMPERIAL       CLEAR     46  34  62 CALM      30.39S
NORTH PLATTE   CLEAR     39  31  72 W6        30.36S WCI  35
MCCOOK         CLEAR     42  34  73 NW6       30.36R

...EASTERN NEBRASKA...

CITY           SKY/WX    TMP DP  RH WIND       PRES   REMARKS
NORFOLK        CLEAR     49  35  58 W12       30.25S
SO SIOUX CITY  CLEAR     50  40  68 NW5       30.20S
TEKAMAH        CLEAR     51  39  63 W7        30.21S
COLUMBUS       CLEAR     48  30  49 W6        30.26S
ALBION         CLEAR     42  37  80 CALM      30.28S
OMAHA EPPLEY   CLEAR     53  39  59 NW7       30.22R
OFFUTT AFB     CLEAR     49  43  80 NW7       30.21R
MILLARD        CLEAR     55  41  59 NW5       30.23R
LINCOLN        CLEAR     46  40  79 N5        30.26S
NEBRASKA CITY  CLEAR     54  32  43 NW8       30.23S
BEATRICE       CLEAR     48  42  79 CALM      30.26S
FALLS CITY     CLEAR     52  47  83 NW8       30.23R

...NORTHERN KANSAS...

CITY           SKY/WX    TMP DP  RH WIND       PRES   REMARKS
GOODLAND       CLEAR     44  35  70 W5        30.40R
HILL CITY      CLEAR     44  35  70 W3        30.35R
HAYS           CLEAR     46  32  57 NW7       30.33S
CONCORDIA      CLEAR     50  42  74 NW8       30.29R
SALINA         CLEAR     53  45  74 NW7       30.29R
TOPEKA         CLEAR     55  48  77 NW7       30.23R HAZE



USA.gov is the U.S. government's official web portal to all federal, state and local government web resources and services.